Wind_Speed
4 5 0 6 4 2 1 1 5 5 6 5 10 13 14 7 7 8 9 8 8 10 13 22 27 31 28 22 18 15 14 12 9 8 8 8 10 8 5 5 4 4 6 8
6 1 7 1 2 3 2 3 7 8 2 6 2 10 8 8 7 8 7 8 12 10 12 19 25 28 27 23 19 16 13 10 7 7 11 10 12 8 8 9 9 9 8 10
5 5 3 4 1 2 3 4 6 7 5 2 4 8 6 3 4 5 6 10 14 19 18 15 21 25 28 23 19 16 13 10 9 9 11 12 10 8 8 8 9 9 10 12
3 2 2 2 3 5 4 6 7 4 3 3 3 5 5 5 5 2 6 9 13 15 15 17 22 23 27 22 19 16 14 13 12 10 9 7 6 7 7 8 8 8 10 12
7 1 1 2 5 4 9 2 2 3 3 3 4 2 6 5 5 5 2 8 12 13 16 15 20 25 26 23 20 17 15 15 13 13 12 10 9 8 7 8 8 9 10 12
5 2 4 7 4 5 1 3 7 5 3 2 3 4 6 4 6 9 6 8 12 12 13 18 23 28 26 21 19 17 16 15 13 12 11 9 9 7 8 9 10 11 10 10
5 5 5 2 2 2 4 5 3 4 4 5 0 2 4 5 7 7 6 10 10 12 13 13 18 21 23 21 18 16 15 15 12 11 10 10 9 7 8 8 10 11 11 12
3 7 2 3 4 5 4 7 5 4 3 5 4 3 5 0 5 11 13 12 13 12 11 12 18 18 22 20 16 15 13 14 11 9 9 8 7 7 8 8 10 11 11 11
3 4 4 1 1 2 2 2 3 6 2 2 3 2 4 4 7 10 11 12 11 11 11 12 15 19 21 16 14 14 15 12 9 8 8 7 7 7 8 9 10 11 11 11
0 2 2 4 3 5 2 4 4 4 0 3 4 3 4 19 14 7 8 8 9 9 10 11 16 22 21 19 16 13 12 11 8 6 7 7 8 9 9 10 11 11 12 12
1 2 5 4 7 3 5 4 5 4 3 3 1 4 6 9 9 7 6 6 8 9 8 8 14 16 19 18 17 14 10 7 7 6 7 8 9 10 10 11 12 12 13 13
2 4 3 1 0 2 5 4 3 4 2 3 3 4 5 4 6 6 8 9 9 8 9 12 15 19 18 16 15 10 7 7 6 6 7 8 10 11 12 12 12 13 14 14
1 4 3 5 5 6 7 5 2 4 3 2 3 5 4 7 8 7 9 9 8 8 9 11 14 13 16 14 12 10 6 6 6 7 7 9 11 12 13 13 14 14 15 12
6 4 3 4 3 1 4 6 5 4 4 1 1 6 6 4 4 5 7 7 7 7 9 8 11 15 16 14 12 5 7 5 6 7 7 10 11 13 14 14 15 15 13 10
4 4 4 6 6 6 3 5 8 7 2 4 3 4 4 4 3 5 7 8 9 8 8 8 7 13 14 14 6 7 7 5 5 7 8 10 11 12 13 14 14 15 13 13
3 1 2 4 7 8 7 7 6 5 4 3 3 2 1 3 5 4 6 7 7 8 8 8 11 14 12 7 7 9 6 7 6 8 9 10 11 13 14 15 16 16 15 15
3 4 3 1 3 2 5 4 2 3 3 0 3 3 3 2 3 4 6 7 8 8 9 10 14 13 10 8 11 6 8 7 7 7 8 10 12 14 16 16 17 17 17 18
4 4 2 2 3 2 4 2 4 6 1 1 0 2 3 4 4 6 2 6 8 9 9 12 12 11 11 10 7 9 9 7 7 7 9 11 13 14 16 16 18 16 18 20
3 5 3 3 2 3 2 3 1 3 1 1 2 0 4 5 3 5 5 4 7 12 13 13 15 14 14 12 11 12 9 8 7 9 10 11 12 15 17 18 19 18 18 21
6 6 4 2 4 4 5 2 2 4 3 3 4 3 5 4 2 2 2 11 13 13 14 16 16 15 15 13 14 11 9 7 9 9 10 11 14 16 17 17 17 18 19 20
2 3 4 2 2 4 5 1 2 5 5 1 1 2 5 2 1 5 9 11 10 11 13 15 15 17 15 14 12 10 9 9 8 7 8 11 13 14 15 16 17 18 21 21
4 5 2 2 3 1 2 1 5 5 1 3 3 2 4 7 9 8 7 10 11 14 14 16 16 14 13 13 10 10 9 8 7 7 7 9 10 11 12 14 17 19 21 26
1 4 5 4 4 2 3 4 2 2 3 2 4 4 8 10 6 7 6 10 12 15 15 14 15 14 12 9 6 10 8 7 6 4 5 6 9 11 12 14 17 20 21 25
3 2 4 3 0 2 3 3 4 4 4 4 4 7 6 8 9 8 8 11 11 14 14 12 15 14 11 7 7 7 8 6 3 2 3 6 8 10 12 13 15 18 19 22
3 2 5 1 1 0 0 3 3 6 7 9 9 6 7 11 8 9 9 11 12 12 10 13 14 13 11 9 9 10 6 2 0 1 3 5 8 10 12 12 15 16 14 15
0 5 3 4 6 4 2 5 5 7 5 6 8 6 9 13 10 15 10 12 13 12 12 13 11 12 11 11 11 7 3 3 3 2 5 6 7 9 10 11 12 15 13 14
Wind_Direction
14 64 266 246 219 122 83 184 255 260 214 169 224 249 264 205 230 224 187 168 131 128 135 137 148 158 152 151 151 148 146 144 143 134 124 124 111 104 67 43 26 13 38 29
22 269 224 193 199 252 257 286 278 283 159 190 289 275 238 196 232 223 157 143 140 129 133 135 140 147 153 147 140 138 140 139 135 127 120 112 122 103 81 78 75 63 45 25
157 230 122 166 220 229 233 214 253 239 356 214 343 311 319 269 259 60 147 157 157 153 146 144 140 141 149 143 138 133 124 116 106 105 114 119 120 108 75 65 59 47 29 20
221 279 269 70 256 154 285 213 237 248 99 247 67 285 314 344 8 159 183 150 153 152 146 144 139 133 144 136 134 124 114 103 94 94 99 104 96 83 66 62 56 33 23 15
244 228 120 312 242 148 234 106 134 100 112 47 311 69 277 3 1 359 292 154 147 146 146 136 130 130 138 137 129 118 107 95 84 79 76 79 79 71 65 54 36 19 13 10
237 230 205 219 249 179 116 60 45 53 76 25 294 113 293 21 332 315 20 93 116 125 116 114 119 133 135 131 124 118 108 96 88 79 77 74 72 57 50 35 24 17 9 5
344 285 290 197 235 10 80 64 340 344 10 226 201 54 256 334 350 317 94 90 108 104 113 117 118 127 135 132 127 119 115 103 92 81 72 64 64 56 44 29 19 12 2 2
134 332 317 354 215 203 181 154 158 218 208 255 291 255 311 17 35 56 78 91 94 102 116 123 128 130 136 135 130 122 113 106 92 78 70 66 64 47 33 24 15 9 360 355
137 285 310 43 268 124 166 143 174 105 34 47 281 343 279 160 65 73 75 85 99 124 131 127 118 125 136 132 129 121 115 101 88 79 75 72 54 35 25 18 10 4 354 348
192 317 18 297 33 29 84 153 44 11 231 290 318 321 303 334 342 98 93 117 128 119 114 114 112 139 148 137 127 120 106 92 92 81 73 59 42 24 15 8 3 357 350 344
20 85 297 37 24 313 3 21 54 109 107 157 333 296 1 323 336 119 137 113 108 106 104 103 127 129 137 132 127 118 79 107 102 78 63 47 30 19 11 2 358 355 351 343
333 129 67 145 264 16 51 28 87 105 282 67 139 285 354 34 66 101 102 102 110 116 130 126 120 131 132 127 123 102 114 123 96 66 57 40 21 13 6 360 359 354 348 343
5 16 41 3 349 5 57 340 352 102 82 44 98 295 62 56 65 81 106 110 107 111 105 100 104 116 131 130 129 119 141 120 86 62 52 32 20 12 5 359 356 354 348 348
81 62 109 181 248 209 44 356 355 93 75 267 72 302 347 22 84 79 92 100 111 119 120 125 124 129 140 135 122 117 145 112 81 60 47 29 23 12 3 360 357 358 355 349
85 81 59 33 52 74 80 30 23 64 13 90 308 342 316 344 153 147 132 130 129 126 130 128 128 132 120 120 115 160 137 114 84 61 42 29 19 13 2 8 7 2 356 349
16 127 84 61 41 67 69 34 50 37 17 65 345 13 333 70 95 127 141 141 140 147 136 129 129 120 133 147 165 147 153 116 83 67 48 22 18 14 9 9 9 5 3 354
73 115 78 184 341 80 27 335 40 91 49 347 53 265 150 113 146 168 166 163 158 147 140 144 144 149 156 165 162 155 147 118 82 68 48 31 17 11 13 5 4 4 359 350
121 90 65 183 44 40 242 35 94 118 125 18 264 291 44 119 94 54 166 152 138 138 146 146 145 147 138 158 158 165 137 107 87 70 55 29 17 25 26 17 16 12 10 4
75 114 80 124 96 277 269 250 184 178 298 258 258 264 110 160 129 26 357 122 139 145 143 143 151 150 151 165 174 148 127 106 81 74 49 30 40 38 31 26 22 19 13 13
67 77 104 104 118 184 224 281 280 136 345 214 195 185 167 173 44 254 70 115 115 121 134 136 147 147 159 170 159 141 124 105 91 73 56 56 52 45 37 28 22 18 12 12
51 35 119 110 122 293 247 305 123 70 247 102 120 154 168 170 191 133 113 95 106 122 129 138 147 159 166 158 155 132 121 104 99 80 76 56 47 43 34 24 17 12 10 10
155 131 156 96 86 255 4 55 113 212 50 95 78 91 90 112 113 103 97 107 116 121 126 146 147 146 149 155 151 132 124 125 113 98 76 59 44 34 22 14 9 8 6 11
92 171 171 158 206 297 358 94 73 127 125 133 121 109 127 128 124 117 118 122 131 128 138 143 140 138 141 151 157 142 133 142 133 108 69 42 27 17 9 3 1 0 4 9
9 111 94 108 126 51 41 69 61 41 84 99 104 127 128 127 129 117 118 130 124 132 132 144 143 138 138 144 148 149 141 140 141 84 34 21 14 7 3 0 2 359 359 5
199 72 127 67 328 61 17 87 101 75 82 89 90 111 121 126 121 128 133 131 128 137 140 150 150 147 144 147 137 134 132 151 192 356 2 4 4 358 356 3 8 7 14 10
332 161 136 212 189 147 158 128 110 106 110 118 118 99 105 128 131 135 129 137 148 145 147 149 152 153 149 148 143 136 114 108 67 61 39 29 16 6 4 6 8 12 10 9
Height
770 786 796 788 784 782 785 793 798 791 781 784 789 782 773 784 785 787 790 795 805 811 817 820 825 830 837 843 847 850 852 855 857 857 857 857 858 859 859 858 857 857 856 855
784 794 779 776 779 784 786 793 799 786 779 785 785 784 777 781 777 775 788 797 805 814 819 823 827 832 838 843 848 851 854 856 857 857 857 857 858 859 859 859 858 857 856 855
791 779 771 775 780 785 789 793 792 791 782 780 784 787 774 770 775 777 782 788 797 804 814 823 829 834 840 845 850 853 856 858 859 858 858 858 860 860 861 860 859 858 857 854
780 770 771 776 782 785 796 775 778 783 791 807 786 815 783 773 775 777 782 792 799 806 815 821 829 836 842 848 853 856 859 860 860 860 860 861 862 862 862 860 859 858 857 855
783 772 774 778 774 774 783 764 772 777 793 797 796 811 791 781 780 780 781 793 802 810 816 825 834 840 846 851 855 859 861 862 863 863 863 863 865 865 864 862 860 858 857 854
773 764 765 769 761 767 763 771 788 800 807 823 802 810 807 802 804 793 797 802 812 819 826 833 839 844 850 855 859 861 863 864 865 865 865 865 864 866 864 862 861 859 856 854
779 773 764 758 768 764 773 793 822 822 832 829 800 811 802 809 812 806 806 818 822 827 833 838 843 848 853 858 861 862 863 864 866 866 867 867 865 866 864 862 860 857 857 855
800 804 769 761 766 775 780 789 823 823 835 823 804 808 800 814 816 815 817 823 829 836 839 843 848 853 857 860 863 865 867 867 868 867 868 868 867 866 865 863 861 859 857 855
798 791 765 761 760 765 780 793 787 814 821 829 819 802 810 811 820 823 830 834 839 840 843 847 852 856 861 866 868 868 868 870 870 870 870 869 868 867 865 863 861 859 857 855
785 796 770 768 762 768 771 781 803 817 816 821 822 817 822 811 810 828 837 839 841 845 848 851 855 859 860 862 868 872 872 872 873 874 872 871 870 868 867 864 861 859 857 854
788 792 787 778 793 796 792 796 803 809 823 831 840 825 827 828 822 831 837 842 846 851 855 859 861 862 867 868 869 873 875 875 875 875 874 873 871 869 867 865 862 859 857 854
790 800 811 797 785 784 790 797 804 821 817 833 837 834 834 834 833 835 839 845 850 852 854 856 862 866 870 873 874 877 877 877 877 876 875 874 873 870 868 866 862 858 856 854
789 812 821 812 801 795 804 806 803 811 821 831 841 835 832 835 837 840 845 849 854 856 860 864 868 870 872 874 876 878 879 879 878 877 876 875 873 872 869 866 863 859 856 853
792 816 818 831 816 812 815 817 813 813 832 834 836 833 829 836 842 848 851 854 856 858 861 864 867 870 872 875 878 881 881 881 879 879 878 876 874 872 871 866 864 859 856 854
799 820 817 822 819 818 824 827 824 824 825 830 831 834 833 835 841 848 850 854 856 860 864 867 870 873 876 878 879 881 882 882 881 880 880 878 875 872 872 867 863 860 857 854
806 824 815 825 824 824 829 830 828 829 831 828 830 831 837 842 845 848 851 854 857 860 864 868 872 875 878 880 881 882 882 882 881 881 880 880 877 874 873 868 864 861 859 856
811 822 832 830 830 827 842 831 828 833 836 837 836 831 836 841 843 848 851 852 855 860 864 867 869 873 876 880 881 883 882 883 883 882 881 880 878 876 873 871 866 862 859 856
814 824 836 837 835 866 835 826 827 835 835 835 834 834 839 842 850 849 847 851 856 860 863 866 870 874 877 880 882 883 884 884 884 883 882 881 879 876 873 872 868 865 861 858
809 825 844 853 853 842 828 825 826 830 834 832 833 836 843 846 846 852 851 850 854 859 863 866 869 873 877 879 881 882 884 886 886 885 884 883 880 877 876 874 871 867 863 860
814 819 832 862 850 846 833 821 821 825 844 830 833 837 842 843 847 853 856 855 858 861 864 867 871 875 878 880 882 884 886 887 887 887 886 885 882 880 879 877 875 871 866 862
826 832 837 851 856 841 827 820 821 840 846 828 831 835 839 842 850 855 858 861 863 865 867 870 873 876 879 882 884 886 888 889 889 889 889 887 885 883 882 880 878 874 869 865
821 835 840 846 846 841 822 820 831 833 829 831 834 837 846 852 855 858 862 865 867 869 871 874 876 879 881 885 886 888 889 890 890 891 890 888 887 885 884 882 880 876 871 865
823 823 830 834 836 829 826 825 827 828 829 832 835 841 846 852 856 860 865 868 870 871 874 877 879 882 885 887 888 889 891 891 892 892 891 890 889 888 886 884 881 877 873 868
815 815 827 829 829 829 828 828 828 829 831 834 837 843 847 852 858 863 866 869 872 875 877 879 882 884 886 888 890 891 892 893 893 893 892 891 890 889 888 886 883 879 876 871
819 817 828 834 829 829 829 829 830 834 836 838 842 845 849 854 860 864 868 871 875 877 879 882 884 886 888 890 891 893 894 894 894 894 893 892 892 891 889 887 884 881 878 876
820 822 827 830 822 825 828 831 832 835 839 842 844 850 854 856 860 865 870 872 875 878 880 883 886 888 890 892 893 895 895 895 895 894 894 893 893 892 891 888 886 884 881 878